Elkins, WV

1:27 PM EDT on May 28, 2017 (GMT -0400)
Elkins-Randolph County

Weather History for KEKN - September, 2013

Change the Weather History Date:

Saturday, September 21, 2013

  Actual Average Record
Temperature  
Mean Temperature 62 °F 60 °F  
Max Temperature 70 °F 72 °F 88 °F (1931)
Min Temperature 53 °F 49 °F 29 °F (1956)
Degree Days  
Heating Degree Days 3 6  
Month to date heating degree days 55 64  
Since 1 July heating degree days 78 94  
Cooling Degree Days 0 1  
Month to date cooling degree days 60 39  
Year to date cooling degree days 523 465  
Growing Degree Days 12 (Base 50)    
Moisture  
Dew Point 58 °F    
Average Humidity 83    
Maximum Humidity 93    
Minimum Humidity 73    
Precipitation  
Precipitation 0.49 in 0.13 in 2.08 in (1948)
Month to date precipitation 2.36 2.59  
Year to date precipitation 35.28 35.40  
Snow  
Snow 0.00 in - - ()
Month to date snowfall 0.0  
Since 1 September snowfall 0.0  
Snow Depth 0.00 in    
Sea Level Pressure  
Sea Level Pressure 29.82 in    
Wind  
Wind Speed 3 mph (SSE)    
Max Wind Speed 17 mph    
Max Gust Speed 22 mph    
Visibility 9 miles    
Events Rain    
T = Trace of Precipitation, MM = Missing Value Source: NWS Daily Summary

Daily Weather History Graph

Daily Weather History Graph

Search for Another Location

Airport or City:

Trip Planner

Search our weather history database for the weather conditions in past years. The results will help you decide how hot, cold, wet, or windy it might be!

Date:

Astronomy

Sep. 21, 2013 Rise Set
Actual Time 7:06 AM EDT 7:17 PM EDT
Civil Twilight 6:39 AM EDT 7:44 PM EDT
Nautical Twilight 6:08 AM EDT 8:15 PM EDT
Astronomical Twilight 5:36 AM EDT 8:46 PM EDT
Moon 8:29 PM EDT (9/21) 9:21 AM EDT (9/21)
Length of Visible Light 13h 04m
Length of Day
12h 11m
Waning Gibbous, 94% of the Moon is Illuminated
Sep 21
Waning Gibbous
Sep 26
Last Quarter
Oct 4
New
Oct 11
First Quarter
Oct 18
Full

Hourly Weather History & Observations

Time (EDT) Temp. Dew Point Humidity Pressure Visibility Wind Dir Wind Speed Gust Speed Precip Events Conditions
12:51 AM 62.1 °F 60.1 °F 93% 29.94 in 9.0 mi Calm Calm - N/A   Clear
1:51 AM 64.0 °F 60.1 °F 87% 29.93 in 10.0 mi South 5.8 mph - N/A   Clear
2:51 AM 63.0 °F 60.1 °F 90% 29.91 in 10.0 mi SE 4.6 mph - N/A   Scattered Clouds
3:51 AM 63.0 °F 60.1 °F 90% 29.89 in 10.0 mi SSE 4.6 mph - N/A   Mostly Cloudy
4:51 AM 63.0 °F 59.0 °F 87% 29.86 in 10.0 mi SSE 4.6 mph - N/A   Mostly Cloudy
5:51 AM 64.0 °F 59.0 °F 84% 29.84 in 10.0 mi South 5.8 mph - N/A   Overcast
6:51 AM 63.0 °F 59.0 °F 87% 29.83 in 10.0 mi SE 5.8 mph - N/A   Partly Cloudy
7:51 AM 64.0 °F 60.1 °F 87% 29.82 in 10.0 mi SE 4.6 mph - N/A   Clear
8:51 AM 66.9 °F 61.0 °F 81% 29.81 in 10.0 mi SSE 5.8 mph - N/A   Clear
9:51 AM 70.0 °F 62.1 °F 76% 29.79 in 10.0 mi SSE 5.8 mph - N/A   Partly Cloudy
10:51 AM 70.0 °F 61.0 °F 73% 29.78 in 10.0 mi SSE 5.8 mph - N/A   Scattered Clouds
11:51 AM 69.1 °F 61.0 °F 75% 29.77 in 10.0 mi SSE 9.2 mph - 0.00 in Rain Light Rain
12:51 PM 68.0 °F 62.1 °F 81% 29.77 in 10.0 mi SSE 5.8 mph - 0.02 in Rain Light Rain
1:51 PM 66.0 °F 63.0 °F 90% 29.76 in 8.0 mi WNW 10.4 mph 19.6 mph 0.04 in Rain Light Rain
2:04 PM 60.8 °F 55.4 °F 82% 29.80 in 7.0 mi NNW 11.5 mph 19.6 mph 0.03 in Rain Heavy Rain
2:12 PM 59.0 °F 55.4 °F 88% 29.80 in 8.0 mi NNW 9.2 mph 18.4 mph 0.06 in Rain Light Rain
2:24 PM 59.0 °F 55.4 °F 88% 29.80 in 10.0 mi NNW 8.1 mph 16.1 mph 0.06 in Rain Light Rain
2:51 PM 59.0 °F 55.9 °F 90% 29.81 in 5.0 mi Variable 3.5 mph - 0.14 in Rain Heavy Rain
3:13 PM 59.0 °F 57.2 °F 94% 29.80 in 7.0 mi Calm Calm - 0.07 in Rain Rain
3:46 PM 59.0 °F 57.2 °F 94% 29.80 in 9.0 mi Calm Calm - 0.14 in Rain Rain
3:51 PM 59.0 °F 57.0 °F 93% 29.79 in 9.0 mi Calm Calm - 0.15 in Rain Rain
4:08 PM 59.0 °F 55.4 °F 88% 29.80 in 9.0 mi Calm Calm - 0.02 in Rain Rain
4:25 PM 59.0 °F 55.4 °F 88% 29.79 in 9.0 mi Calm Calm - 0.05 in Rain Rain
4:51 PM 59.0 °F 57.0 °F 93% 29.77 in 10.0 mi Calm Calm - 0.08 in Rain Light Rain
5:51 PM 59.0 °F 57.0 °F 93% 29.77 in 10.0 mi Calm Calm - 0.04 in Rain Light Rain
6:31 PM 60.8 °F 55.4 °F 82% 29.79 in 10.0 mi Calm Calm - 0.00 in   Overcast
6:51 PM 60.1 °F 57.0 °F 90% 29.78 in 10.0 mi Calm Calm - 0.00 in   Overcast
6:55 PM 60.8 °F 57.2 °F 88% 29.80 in 10.0 mi Calm Calm - 0.00 in Rain Light Rain
7:09 PM 60.8 °F 57.2 °F 88% 29.80 in 10.0 mi Calm Calm - 0.00 in Rain Light Rain
7:51 PM 60.1 °F 57.0 °F 90% 29.80 in 10.0 mi Calm Calm - 0.00 in   Overcast
8:16 PM 59.0 °F 57.2 °F 94% 29.81 in 10.0 mi Calm Calm - 0.00 in Rain Light Rain
8:51 PM 59.0 °F 57.0 °F 93% 29.81 in 10.0 mi Calm Calm - 0.00 in   Overcast
9:51 PM 59.0 °F 57.0 °F 93% 29.82 in 8.0 mi Calm Calm - 0.02 in Rain Light Rain
10:12 PM 59.0 °F 55.4 °F 88% 29.84 in 10.0 mi Variable 3.5 mph - 0.00 in   Overcast
10:24 PM 59.0 °F 55.4 °F 88% 29.84 in 10.0 mi Calm Calm - 0.00 in   Overcast
10:51 PM 57.9 °F 55.9 °F 93% 29.83 in 10.0 mi Calm Calm - 0.00 in   Overcast
11:51 PM 55.0 °F 53.1 °F 93% 29.84 in 2.5 mi Calm Calm - N/A   Scattered Clouds
11:59 PM 53.6 °F 51.8 °F 94% 29.85 in 1.0 mi Calm Calm - N/A   Mist